TimeCST,TemperatureF,Dew PointF,Humidity,Sea Level PressureIn,VisibilityMPH,Wind Direction,Wind SpeedMPH,Gust SpeedMPH,PrecipitationIn,Events,Conditions,WindDirDegrees,DateUTC
12:15 AM,32.0,28.4,87,30.20,10.0,SSE,8.1,-,N/A,,Scattered Clouds,160,2012-12-06 06:15:00
12:35 AM,32.0,28.4,87,30.19,10.0,South,6.9,-,N/A,,Clear,170,2012-12-06 06:35:00
12:55 AM,32.0,28.4,87,30.18,10.0,SSE,11.5,-,N/A,,Scattered Clouds,160,2012-12-06 06:55:00
1:15 AM,32.0,28.4,87,30.18,10.0,SSE,9.2,-,N/A,,Scattered Clouds,160,2012-12-06 07:15:00
1:35 AM,32.0,28.4,87,30.18,10.0,South,9.2,-,N/A,,Clear,170,2012-12-06 07:35:00
1:55 AM,32.0,28.4,87,30.18,10.0,South,9.2,-,N/A,,Clear,170,2012-12-06 07:55:00
2:15 AM,32.0,28.4,87,30.17,10.0,SSE,11.5,16.1,N/A,,Scattered Clouds,160,2012-12-06 08:15:00
2:35 AM,32.0,28.4,87,30.16,10.0,SSE,10.4,-,N/A,,Clear,160,2012-12-06 08:35:00
2:55 AM,32.0,28.4,87,30.15,10.0,SSE,10.4,-,N/A,,Scattered Clouds,160,2012-12-06 08:55:00
3:15 AM,32.0,28.4,87,30.15,10.0,SSE,10.4,-,N/A,,Clear,160,2012-12-06 09:15:00
5:45 AM,30.2,26.6,86,30.10,10.0,SE,6.9,-,N/A,,Overcast,130,2012-12-06 11:45:00
6:50 AM,30.2,26.6,86,30.09,10.0,SSE,6.9,-,N/A,,Scattered Clouds,150,2012-12-06 12:50:00
7:45 AM,32.0,26.6,80,30.08,10.0,SSE,9.2,-,N/A,,Overcast,150,2012-12-06 13:45:00
8:45 AM,32.0,28.4,87,30.05,10.0,SSE,11.5,-,N/A,,Overcast,150,2012-12-06 14:45:00
9:45 AM,33.8,28.4,81,30.03,10.0,South,16.1,-,N/A,,Mostly Cloudy,170,2012-12-06 15:45:00
10:45 AM,35.6,30.2,81,30.00,10.0,South,11.5,-,N/A,,Scattered Clouds,170,2012-12-06 16:45:00
11:45 AM,37.4,30.2,75,29.97,10.0,South,11.5,-,N/A,,Mostly Cloudy,170,2012-12-06 17:45:00
12:45 PM,39.2,32.0,75,29.94,10.0,SSW,9.2,-,N/A,,Mostly Cloudy,200,2012-12-06 18:45:00
1:45 PM,39.2,33.8,81,29.90,10.0,South,17.3,-,N/A,,Mostly Cloudy,180,2012-12-06 19:45:00
2:45 PM,41.0,33.8,76,29.89,10.0,South,9.2,-,N/A,,Overcast,180,2012-12-06 20:45:00
3:45 PM,41.0,33.8,76,29.87,10.0,South,12.7,-,N/A,,Overcast,180,2012-12-06 21:45:00
4:45 PM,41.0,33.8,76,29.90,10.0,SW,5.8,-,N/A,,Mostly Cloudy,220,2012-12-06 22:45:00
5:45 PM,41.0,33.8,76,29.90,10.0,Calm,Calm,-,N/A,,Mostly Cloudy,0,2012-12-06 23:45:00
6:45 PM,41.0,35.6,81,29.89,10.0,SSW,6.9,-,N/A,,Mostly Cloudy,200,2012-12-07 00:45:00
7:45 PM,41.0,35.6,81,29.90,10.0,SSW,9.2,-,N/A,,Overcast,210,2012-12-07 01:45:00
8:35 PM,41.0,33.8,76,29.90,10.0,SW,4.6,-,N/A,,Overcast,230,2012-12-07 02:35:00
8:45 PM,41.0,35.6,81,29.90,10.0,SW,3.5,-,N/A,,Overcast,220,2012-12-07 02:45:00
8:55 PM,41.0,33.8,76,29.90,10.0,SSW,4.6,-,N/A,,Overcast,210,2012-12-07 02:55:00
9:15 PM,41.0,35.6,81,29.90,10.0,SSW,4.6,-,N/A,,Overcast,200,2012-12-07 03:15:00
9:35 PM,41.0,35.6,81,29.90,10.0,SW,4.6,-,N/A,,Overcast,220,2012-12-07 03:35:00
9:55 PM,41.0,35.6,81,29.90,10.0,SW,5.8,-,N/A,,Overcast,230,2012-12-07 03:55:00
10:15 PM,39.2,33.8,81,29.90,10.0,SW,3.5,-,N/A,,Overcast,220,2012-12-07 04:15:00
10:35 PM,39.2,33.8,81,29.90,10.0,SW,4.6,-,N/A,,Overcast,220,2012-12-07 04:35:00
10:55 PM,39.2,35.6,87,29.91,10.0,WSW,3.5,-,N/A,,Overcast,240,2012-12-07 04:55:00
11:15 PM,39.2,35.6,87,29.91,10.0,WSW,5.8,-,N/A,,Overcast,250,2012-12-07 05:15:00
11:35 PM,39.2,33.8,81,29.91,10.0,West,5.8,-,N/A,,Scattered Clouds,270,2012-12-07 05:35:00
11:55 PM,37.4,33.8,87,29.91,10.0,West,6.9,-,N/A,,Clear,280,2012-12-07 05:55:00